Regional Weather Roundup
Issued by NWS Sioux Falls, SD

Home | Current Version | Previous Version | Text Only | Print | Product List | Glossary Off
Versions: 1 2 3 4 5 6 7 8 9 10 11 12 13 14 15 16 17 18 19 20 21 22 23 24 25 26 27 28 29 30 31 32 33 34 35 36 37 38 39 40 41 42 43 44 45 46 47 48 49 50

000
ASUS43 KFSD 261910
RWRFSD

WEATHER ROUNDUP FOR SE SOUTH DAKOTA/SW MINNESOTA/NW IOWA
NATIONAL WEATHER SERVICE SIOUX FALLS SD
100 PM CST THU FEB 26 2015

NOTE: "FAIR" INDICATES FEW OR NO CLOUDS BELOW 12,000 FEET WITH NO
SIGNIFICANT WEATHER AND OR OBSTRUCTIONS TO VISIBILITY.


SDZ038>040-050-052>070-262000-
SOUTHEAST SOUTH DAKOTA

CITY           SKY/WX    TMP DP  RH WIND       PRES   REMARKS
CHAMBERLAIN    MOSUNNY    9  -6  50 NW13G22   30.53S WCI  -7
HURON          SUNNY      3  -7  63 NW13      30.56F WCI -14
MADISON        FAIR       1  -4  78 N15G21    30.48S WCI -18
MITCHELL       SUNNY      6  -4  63 N15G21    30.57S WCI -12
SIOUX FALLS    MOSUNNY    4  -6  63 N17       30.50F WCI -16
WINNER         CLOUDY     8  -4  58 NW14      30.51F WCI  -8
YANKTON        MOSUNNY    9   0  66 NW16G22   30.55F WCI  -9
$$

MNZ071-072-080-081-089-090-097-098-262000-
SOUTHWEST MINNESOTA

CITY           SKY/WX    TMP DP  RH WIND       PRES   REMARKS
FAIRMONT       MOSUNNY    3  -6  66 NW16      30.44F WCI -16
JACKSON        PTSUNNY    3  -6  66 NW17G23   30.44S WCI -17
LUVERNE        MOSUNNY    5  -4  66 NW14      30.49F HAZE    WCI -12
MARSHALL       PTSUNNY    0  -8  71 NW14      30.52S WCI -19
MONTEVIDEO     MOSUNNY    3  -6  66 N13G18    30.53F WCI -14
PIPESTONE      MOSUNNY    1  -6  71 N12G18    30.45S HAZE    WCI -15
REDWOOD FALLS  PTSUNNY    4  -8  57 NW18      30.50F WCI -16
TRACY          PTSUNNY    3  -6  66 NW15      30.49S WCI -15
WINDOM         MOSUNNY    1  -8  66 NW20      30.45F WCI -20
WORTHINGTON    PTSUNNY   18 -11  27 N17       30.45F WCI   2
$$

IAZ001>003-012>014-020>022-031-032-NEZ013-014-SDZ071-262000-
NORTHWEST IOWA

CITY           SKY/WX    TMP DP  RH WIND       PRES   REMARKS
CHEROKEE       SUNNY      4  -6  63 N12G22    30.49F WCI -12
DENISON        MOSUNNY    3  -8  60 N16G22    30.47F WCI -16
ESTHERVILLE    PTSUNNY    2  -6  69 N17       30.45S WCI -18
LE MARS        MOSUNNY    5  -2  72 N13G18    30.52F WCI -12
ORANGE CITY    MOSUNNY    5  -4  66 NW15G21   30.48F HAZE    WCI -13
SHELDON        PTSUNNY    3  -8  60 NW18      30.47F WCI -17
SIOUX CITY     PTSUNNY    8  -3  61 NW18      30.53F WCI -11
SPENCER        CLOUDY     5  -6  60 NW16      30.46F WCI -14
STORM LAKE     PTSUNNY    3  -6  66 NW16      30.46S WCI -16
$$

ABBREVIATIONS USED IN REMARKS
   TC - TEMPERATURE IN CELSIUS
  WCI - WIND CHILL INDEX
   HX - HEAT INDEX
  VSB - VISIBILITY



USA.gov is the U.S. government's official web portal to all federal, state and local government web resources and services.